Weather History for Biloxi, MS

Change the Weather History Date:

Thursday, October 6, 2011

  Actual Average Record
Temperature  
Mean Temperature 72 °F -  
Max Temperature 83 °F 83 °F 91 °F (2000)
Min Temperature 61 °F 63 °F 48 °F (1964)
Cooling Degree Days 7    
Growing Degree Days 22 (Base 50)    
Moisture  
Dew Point 61 °F    
Average Humidity 72    
Maximum Humidity 96    
Minimum Humidity 42    
Precipitation  
Precipitation 0.00 in - - ()
Sea Level Pressure  
Sea Level Pressure 30.14 in    
Wind  
Wind Speed 7 mph (East)    
Max Wind Speed 17 mph    
Max Gust Speed 24 mph    
Visibility 10 miles    
Events      
Averages and records for this station are not official NWS values.
T = Trace of Precipitation, MM = Missing Value Source: NWS Daily Summary

Daily Weather History Graph

Daily Weather History Graph

Search for Another Location

Airport:

Trip Planner

Search our weather history database for the weather conditions in past years. The results will help you decide how hot, cold, wet, or windy it might be!

Date:

Astronomy

Oct. 06, 2011 Rise Set
Actual Time 6:52 AM CDT 6:35 PM CDT
Civil Twilight 6:27 AM CDT 6:59 PM CDT
Nautical Twilight 6:00 AM CDT 7:27 PM CDT
Astronomical Twilight 5:32 AM CDT 7:54 PM CDT
Moon 3:30 PM CDT (10/6) 2:00 AM CDT (10/6)
Length of Visible Light 12h 31m
Length of Day
11h 43m
Waxing Gibbous, 75% of the Moon is Illuminated
Oct 6
Waxing Gibbous
Oct 11
Full
Oct 19
Last Quarter
Oct 26
New
Nov 2
First Quarter

Hourly Weather History & Observations

Time (CDT) Temp. Heat Index Dew Point Humidity Pressure Visibility Wind Dir Wind Speed Gust Speed Precip Events Conditions
12:55 AM 65.3 °F - 63.5 °F 94% 30.11 in 10.0 mi NE 4.6 mph - N/A   Clear
1:55 AM 64.6 °F - 63.3 °F 96% 30.12 in 10.0 mi Calm Calm - N/A   Clear
2:55 AM 63.5 °F - 62.2 °F 96% 30.11 in 10.0 mi NE 3.5 mph - N/A   Clear
3:55 AM 61.5 °F - 59.9 °F 94% 30.11 in 10.0 mi ENE 4.6 mph - N/A   Clear
4:55 AM 61.3 °F - 59.5 °F 94% 30.11 in 10.0 mi NE 5.8 mph - N/A   Clear
5:55 AM 62.1 °F - 59.5 °F 91% 30.13 in 10.0 mi ENE 6.9 mph - N/A   Clear
6:55 AM 61.7 °F - 59.4 °F 92% 30.14 in 10.0 mi ENE 8.1 mph - N/A   Clear
7:55 AM 63.1 °F - 59.5 °F 88% 30.15 in 10.0 mi NE 9.2 mph - N/A   Clear
8:55 AM 69.4 °F - 60.1 °F 72% 30.16 in 10.0 mi NE 9.2 mph - N/A   Clear
9:55 AM 76.1 °F - 60.8 °F 59% 30.17 in 10.0 mi East 8.1 mph - N/A   Clear
10:55 AM 79.3 °F - 61.9 °F 55% 30.17 in 10.0 mi ENE 9.2 mph - N/A   Clear
11:55 AM 82.4 °F 82.9 °F 61.2 °F 48% 30.16 in 10.0 mi East 11.5 mph - N/A   Clear
12:55 PM 83.1 °F 83.7 °F 61.7 °F 48% 30.14 in 10.0 mi SE 15.0 mph - N/A   Clear
1:55 PM 82.4 °F 82.0 °F 57.4 °F 42% 30.13 in 10.0 mi SE 17.3 mph 24.2 mph N/A   Clear
2:55 PM 79.3 °F - 59.4 °F 50% 30.12 in 10.0 mi SE 16.1 mph - N/A   Clear
3:55 PM 80.1 °F 80.9 °F 59.9 °F 50% 30.11 in 10.0 mi SE 15.0 mph 19.6 mph N/A   Clear
4:55 PM 78.6 °F - 58.5 °F 50% 30.11 in 10.0 mi SE 12.7 mph - N/A   Clear
5:55 PM 77.7 °F - 60.8 °F 56% 30.12 in 10.0 mi SE 10.4 mph - N/A   Clear
6:55 PM 75.4 °F - 60.1 °F 59% 30.13 in 10.0 mi ESE 6.9 mph - N/A   Clear
7:55 PM 74.1 °F - 62.6 °F 67% 30.14 in 10.0 mi East 5.8 mph - N/A   Partly Cloudy
8:55 PM 70.9 °F - 62.4 °F 75% 30.17 in 10.0 mi NE 5.8 mph - N/A   Clear
9:55 PM 68.7 °F - 63.3 °F 83% 30.17 in 10.0 mi NE 4.6 mph - N/A   Clear
10:55 PM 67.8 °F - 63.0 °F 84% 30.17 in 10.0 mi NE 4.6 mph - N/A   Clear
11:55 PM 65.3 °F - 62.1 °F 89% 30.16 in 10.0 mi ENE 5.8 mph - N/A   Clear